• In Portugal
  • List of Countries
  • For 7 days
  • Water Temperature
  • Satellite Maps
  • Weather Map
  • Weather Widgets
  • user-avatar
    Login

    Hourly Weather Darkhan

    Today, 22 September, Saturday

    Time Temperature Precipitation Wind Pressure Humidity
    00:00 +3°C° 0 mm 1 mps 689 mmHg 81%
    01:00 +2°C° 0 mm 1 mps 689 mmHg 82%
    02:00 +2°C° 0 mm 1 mps 689 mmHg 82%
    03:00 +2°C° 0 mm 1 mps 690 mmHg 83%
    04:00 +2°C° 0 mm 1 mps 690 mmHg 83%
    05:00 +3°C° 0 mm 1 mps 690 mmHg 82%
    06:00 +3°C° 0 mm 1 mps 691 mmHg 80%
    07:00 +4°C° 0 mm 1 mps 691 mmHg 77%
    08:00 +5°C° 0 mm 2 mps 691 mmHg 71%
    09:00 +6°C° 0 mm 2 mps 691 mmHg 66%
    10:00 +8°C° 0 mm 3 mps 691 mmHg 61%
    11:00 +9°C° 0 mm 3 mps 691 mmHg 59%
    12:00 +9°C° 0 mm 2 mps 691 mmHg 57%
    13:00 +10°C° 0 mm 2 mps 691 mmHg 54%
    14:00 +10°C° 0 mm 2 mps 691 mmHg 54%
    15:00 +12°C° 0 mm 1 mps 691 mmHg 54%
    16:00 +12°C° 0 mm 1 mps 691 mmHg 54%
    17:00 +10°C° 0 mm 1 mps 691 mmHg 61%
    18:00 +8°C° 0 mm 1 mps 691 mmHg 67%
    19:00 +6°C° 0 mm 1 mps 691 mmHg 74%
    20:00 +6°C° 0 mm 1 mps 691 mmHg 76%
    21:00 +4°C° 0 mm 2 mps 691 mmHg 78%
    22:00 +3°C° 0 mm 2 mps 692 mmHg 81%
    23:00 +3°C° 0 mm 2 mps 691 mmHg 82%

    Tomorrow, 23 September, Sunday

    Time Temperature Precipitation Wind Pressure Humidity
    00:00 +3°C° 0 mm 2 mps 691 mmHg 83%
    01:00 +2°C° 0 mm 2 mps 691 mmHg 84%
    02:00 +2°C° 0 mm 2 mps 691 mmHg 85%
    03:00 +2°C° 0 mm 2 mps 691 mmHg 86%
    04:00 +2°C° 0 mm 2 mps 690 mmHg 86%
    05:00 +2°C° 0 mm 2 mps 691 mmHg 84%
    06:00 +2°C° 0 mm 2 mps 691 mmHg 81%
    07:00 +3°C° 0 mm 2 mps 691 mmHg 79%
    08:00 +5°C° 0 mm 2 mps 690 mmHg 70%
    09:00 +8°C° 0 mm 2 mps 690 mmHg 62%
    10:00 +10°C° 0 mm 2 mps 690 mmHg 53%
    11:00 +13°C° 0 mm 2 mps 690 mmHg 49%
    12:00 +14°C° 0 mm 2 mps 689 mmHg 45%
    13:00 +15°C° 0 mm 2 mps 689 mmHg 41%
    14:00 +15°C° 0 mm 2 mps 689 mmHg 42%
    15:00 +15°C° 0 mm 2 mps 688 mmHg 43%
    16:00 +15°C° 0 mm 2 mps 688 mmHg 44%
    17:00 +13°C° 0 mm 1 mps 688 mmHg 49%
    18:00 +11°C° 0 mm 1 mps 687 mmHg 54%
    19:00 +8°C° 0 mm 1 mps 687 mmHg 59%
    20:00 +8°C° 0 mm 1 mps 687 mmHg 60%
    21:00 +7°C° 0 mm 1 mps 687 mmHg 62%
    22:00 +7°C° 0 mm 1 mps 687 mmHg 63%
    23:00 +7°C° 0 mm 1 mps 687 mmHg 64%

    Day after tomorrow, 24 September, Monday

    Time Temperature Precipitation Wind Pressure Humidity
    00:00 +7°C° 0 mm 1 mps 687 mmHg 64%
    01:00 +6°C° 0 mm 1 mps 687 mmHg 65%
    02:00 +6°C° 0 mm 1 mps 687 mmHg 65%
    03:00 +6°C° 0 mm 1 mps 687 mmHg 65%
    04:00 +6°C° 0 mm 1 mps 687 mmHg 65%
    05:00 +6°C° 0 mm 1 mps 687 mmHg 65%
    06:00 +7°C° 0 mm 1 mps 687 mmHg 66%
    07:00 +7°C° 0 mm 1 mps 687 mmHg 66%
    08:00 +9°C° 0 mm 1 mps 687 mmHg 59%
    09:00 +11°C° 0 mm 1 mps 687 mmHg 53%
    10:00 +13°C° 0 mm 1 mps 687 mmHg 47%
    11:00 +14°C° 0 mm 1 mps 686 mmHg 44%
    12:00 +16°C° 0 mm 1 mps 686 mmHg 41%
    13:00 +18°C° 0 mm 1 mps 686 mmHg 39%
    14:00 +16°C° 0 mm 1 mps 686 mmHg 41%
    15:00 +16°C° 0 mm 1 mps 685 mmHg 44%
    16:00 +15°C° 0 mm 0 mps 685 mmHg 46%
    17:00 +14°C° 0 mm 1 mps 685 mmHg 50%
    18:00 +13°C° 0 mm 1 mps 685 mmHg 54%
    19:00 +11°C° 0 mm 1 mps 685 mmHg 58%
    20:00 +10°C° 0 mm 1 mps 685 mmHg 61%
    21:00 +10°C° 0 mm 1 mps 685 mmHg 64%
    22:00 +9°C° 0 mm 1 mps 685 mmHg 67%
    23:00 +8°C° 0 mm 1 mps 685 mmHg 69%

    25 September, Tuesday

    Time Temperature Precipitation Wind Pressure Humidity
    00:00 +7°C° 0 mm 0 mps 684 mmHg 71%
    01:00 +6°C° 0 mm 0 mps 684 mmHg 73%
    02:00 +6°C° 0 mm 0 mps 684 mmHg 75%
    03:00 +6°C° 0 mm 0 mps 684 mmHg 76%
    04:00 +5°C° 0 mm 0 mps 684 mmHg 78%
    05:00 +6°C° 0 mm 0 mps 685 mmHg 77%
    06:00 +6°C° 0 mm 0 mps 685 mmHg 76%
    07:00 +7°C° 0 mm 0 mps 685 mmHg 75%
    08:00 +9°C° 0 mm 0 mps 685 mmHg 67%
    09:00 +11°C° 0 mm 0 mps 685 mmHg 60%
    10:00 +13°C° 0 mm 0 mps 685 mmHg 53%
    11:00 +15°C° 0 mm 1 mps 685 mmHg 50%
    12:00 +16°C° 0 mm 1 mps 685 mmHg 46%
    13:00 +19°C° 0 mm 1 mps 685 mmHg 43%
    14:00 +18°C° 0 mm 1 mps 685 mmHg 44%
    15:00 +18°C° 0 mm 1 mps 684 mmHg 45%
    16:00 +18°C° 0 mm 1 mps 684 mmHg 46%
    17:00 +15°C° 0 mm 1 mps 684 mmHg 52%
    18:00 +13°C° 0 mm 1 mps 684 mmHg 57%
    19:00 +11°C° 0 mm 1 mps 683 mmHg 62%
    20:00 +11°C° 0 mm 1 mps 683 mmHg 63%
    21:00 +11°C° 0 mm 1 mps 683 mmHg 64%
    22:00 +10°C° 0 mm 1 mps 683 mmHg 64%
    23:00 +10°C° 0 mm 1 mps 683 mmHg 65%

    26 September, Wednesday

    Time Temperature Precipitation Wind Pressure Humidity
    00:00 +10°C° 0 mm 1 mps 683 mmHg 66%
    01:00 +9°C° 0 mm 1 mps 683 mmHg 67%
    02:00 +9°C° 0 mm 1 mps 682 mmHg 67%
    03:00 +9°C° 0 mm 1 mps 682 mmHg 68%
    04:00 +9°C° 0 mm 1 mps 682 mmHg 68%
    05:00 +9°C° 0 mm 1 mps 682 mmHg 69%
    06:00 +9°C° 0 mm 2 mps 682 mmHg 70%
    07:00 +9°C° 0 mm 2 mps 683 mmHg 71%
    08:00 +10°C° 0 mm 2 mps 683 mmHg 67%
    09:00 +11°C° 0 mm 3 mps 682 mmHg 64%
    10:00 +12°C° 0 mm 3 mps 682 mmHg 60%
    11:00 +14°C° 0 mm 4 mps 682 mmHg 57%
    12:00 +15°C° 0 mm 5 mps 682 mmHg 53%
    13:00 +16°C° 0 mm 6 mps 681 mmHg 50%
    14:00 +15°C° 0 mm 6 mps 681 mmHg 52%
    15:00 +15°C° 0 mm 6 mps 681 mmHg 54%
    16:00 +15°C° 0 mm 7 mps 681 mmHg 56%
    17:00 +12°C° 0.4 mm 7 mps 681 mmHg 61%
    18:00 +11°C° 0.4 mm 7 mps 681 mmHg 67%
    19:00 +9°C° 0.4 mm 7 mps 681 mmHg 73%
    20:00 +8°C° 0.6 mm 7 mps 681 mmHg 77%
    21:00 +8°C° 0.6 mm 7 mps 682 mmHg 80%
    22:00 +6°C° 0.6 mm 7 mps 682 mmHg 84%
    23:00 +6°C° 1.2 mm 7 mps 682 mmHg 84%

    27 September, Thursday

    Time Temperature Precipitation Wind Pressure Humidity
    00:00 +5°C° 1.2 mm 7 mps 682 mmHg 84%
    01:00 +5°C° 1.2 mm 7 mps 683 mmHg 85%
    02:00 +5°C° 1.5 mm 6 mps 683 mmHg 84%
    03:00 +4°C° 1.5 mm 6 mps 684 mmHg 84%
    04:00 +5°C° 1.5 mm 5 mps 684 mmHg 84%
    05:00 +5°C° 0.7 mm 4 mps 685 mmHg 85%
    06:00 +5°C° 0.7 mm 4 mps 686 mmHg 85%
    07:00 +5°C° 0.7 mm 3 mps 687 mmHg 85%
    08:00 +6°C° 0.1 mm 4 mps 687 mmHg 80%
    09:00 +7°C° 0.1 mm 5 mps 688 mmHg 75%
    10:00 +8°C° 0.1 mm 6 mps 688 mmHg 70%
    11:00 +8°C° 0.1 mm 5 mps 688 mmHg 68%
    12:00 +8°C° 0.1 mm 4 mps 688 mmHg 66%
    13:00 +10°C° 0.1 mm 3 mps 689 mmHg 64%
    14:00 +10°C° 0.1 mm 3 mps 689 mmHg 64%
    15:00 +10°C° 0.1 mm 2 mps 689 mmHg 64%
    16:00 +10°C° 0.1 mm 2 mps 689 mmHg 65%
    17:00 +10°C° 0 mm 2 mps 689 mmHg 67%
    18:00 +9°C° 0 mm 2 mps 689 mmHg 69%
    19:00 +9°C° 0 mm 1 mps 689 mmHg 72%
    20:00 +8°C° 0.1 mm 2 mps 689 mmHg 73%
    21:00 +7°C° 0.1 mm 2 mps 689 mmHg 74%
    22:00 +7°C° 0.1 mm 2 mps 689 mmHg 76%
    23:00 +7°C° 0.5 mm 2 mps 689 mmHg 79%
    Show more